TimeCST,TemperatureF,Dew PointF,Humidity,Sea Level PressureIn,VisibilityMPH,Wind Direction,Wind SpeedMPH,Gust SpeedMPH,PrecipitationIn,Events,Conditions,WindDirDegrees,DateUTC
12:53 AM,19.0,10.9,71,30.26,10.0,Calm,Calm,-,N/A,,Clear,0,2012-12-12 06:53:00
1:53 AM,21.9,12.0,66,30.26,10.0,Calm,Calm,-,N/A,,Clear,0,2012-12-12 07:53:00
2:53 AM,21.0,12.0,68,30.27,10.0,Calm,Calm,-,N/A,,Clear,0,2012-12-12 08:53:00
3:53 AM,19.9,12.0,71,30.27,10.0,Calm,Calm,-,N/A,,Clear,0,2012-12-12 09:53:00
4:53 AM,17.1,10.9,77,30.28,10.0,Calm,Calm,-,N/A,,Clear,0,2012-12-12 10:53:00
6:53 AM,19.9,12.9,74,30.30,10.0,Calm,Calm,-,N/A,,Clear,0,2012-12-12 12:53:00
7:53 AM,19.0,14.0,81,30.33,10.0,Calm,Calm,-,N/A,,Clear,0,2012-12-12 13:53:00
8:53 AM,37.0,23.0,57,30.33,10.0,SSE,4.6,-,N/A,,Clear,160,2012-12-12 14:53:00
9:53 AM,43.0,21.0,42,30.34,10.0,South,10.4,17.3,N/A,,Clear,170,2012-12-12 15:53:00
10:53 AM,48.0,19.9,33,30.33,10.0,SSE,13.8,-,N/A,,Clear,160,2012-12-12 16:53:00
11:53 AM,52.0,19.0,27,30.31,10.0,SSW,6.9,-,N/A,,Clear,200,2012-12-12 17:53:00
12:53 PM,55.0,17.1,23,30.27,10.0,South,11.5,17.3,N/A,,Clear,170,2012-12-12 18:53:00
1:53 PM,57.0,17.1,21,30.22,10.0,South,13.8,18.4,N/A,,Clear,170,2012-12-12 19:53:00
2:53 PM,57.9,18.0,21,30.22,10.0,South,10.4,-,N/A,,Clear,170,2012-12-12 20:53:00
3:53 PM,57.0,19.0,23,30.20,10.0,SSE,11.5,-,N/A,,Clear,150,2012-12-12 21:53:00
4:53 PM,54.0,19.0,25,30.20,10.0,SSE,12.7,-,N/A,,Clear,150,2012-12-12 22:53:00
5:53 PM,48.9,19.0,31,30.21,10.0,SSE,5.8,-,N/A,,Clear,150,2012-12-12 23:53:00
6:53 PM,46.9,21.0,36,30.23,10.0,SE,5.8,-,N/A,,Clear,140,2012-12-13 00:53:00
7:53 PM,46.9,21.0,36,30.24,10.0,SE,10.4,-,N/A,,Clear,140,2012-12-13 01:53:00
8:53 PM,45.0,21.0,39,30.23,10.0,SSE,9.2,-,N/A,,Clear,150,2012-12-13 02:53:00
9:53 PM,45.0,21.0,39,30.24,10.0,SSE,9.2,-,N/A,,Clear,150,2012-12-13 03:53:00
10:53 PM,44.1,19.9,38,30.25,10.0,SSE,9.2,-,N/A,,Clear,160,2012-12-13 04:53:00
11:53 PM,39.9,19.9,45,30.25,10.0,SSE,3.5,-,N/A,,Clear,160,2012-12-13 05:53:00